Terug naar catalogus

ATLAS 2A CENTAUR R/B

ActiefGTO
NORAD 23840·ROCKET BODY·🇺🇸 United States

Gelanceerd Apr 3, 1996 vanaf Cape Canaveral Space Force Station

Loading…

TLE

VerouderdSource: Space-Track

Epoch: Sep 14, 2026, 02:00 UTC

1 23840U 96020B   26257.08354407 -.00000103  00000-0  18515-2 0  9994
2 23840  21.6486  59.5443 6997625 334.7509   3.1252  2.24210119249494

Volg ATLAS 2A CENTAUR R/B in realtime met AllMySat

Download on the App Store